This demonstration page uses our WeatherBlox Daily Observations layout. Learn more.

Left ArrowRight Arrow

Hourly Observations for October 27, 2021

Temp ( °F °C ) Dew Point ( °F °C ) Humidity (%) Winds ( mph kmh ) Pressure ( in mb ) Visibility ( mi km ) Precip ( " mm )
12:18 am 00:18 Cloudy with Mist and Fog 54 12.2 52 11.1 93 93 N 5 7 30.26 1025 6 10 0.00 0.00
12:53 am 00:53 Cloudy with Mist and Fog 54 12.2 52 11.1 93 93 NNE 3 6 30.25 1024 5 8 0.00 0.00
1:21 am 01:21 Cloudy 54 12.2 53 11.7 97 97 N 3 6 30.26 1025 7 11 0.00 0.00
1:53 am 01:53 Cloudy with Light Rain 54 12.2 53 11.7 97 97 NNW 5 7 30.26 1025 4 6 0.01 0.25
2:02 am 02:02 Cloudy with Light Rain 54 12.2 53 11.7 97 97 Calm 30.26 1025 3 5 0.00 0.00
2:11 am 02:11 Cloudy with Light Rain 54 12.2 53 11.7 97 97 NE 3 6 30.27 1025 4 6 0.01 0.25
2:14 am 02:14 Cloudy with Light Rain 54 12.2 53 11.7 97 97 NE 3 6 30.27 1025 3 5 0.01 0.25
2:17 am 02:17 Cloudy with Light Rain 54 12.2 53 11.7 97 97 NE 3 6 30.27 1025 3 5 0.01 0.25
2:29 am 02:29 Cloudy with Light Rain 54 12.2 53 11.7 97 97 E 3 6 30.27 1025 4 6 0.02 0.51
2:37 am 02:37 Cloudy with Mist and Fog 54 12.2 53 11.7 97 97 Calm 30.27 1025 5 8 0.02 0.51
2:53 am 02:53 Cloudy with Mist and Fog 54 12.2 53 11.7 97 97 Calm 30.27 1025 4 6 0.02 0.51
3:27 am 03:27 Cloudy with Light Rain 54 12.2 53 11.7 97 97 ENE 5 7 30.28 1026 4 6 0.01 0.25
3:53 am 03:53 Cloudy with Mist and Fog 54 12.2 53 11.7 97 97 NE 5 7 30.27 1025 6 10 0.02 0.51
4:26 am 04:26 Cloudy 54 12.2 53 11.7 97 97 ENE 5 7 30.29 1026 7 11 0.00 0.00
4:38 am 04:38 Cloudy 54 12.2 53 11.7 97 97 ENE 6 9 30.29 1026 8 13 0.00 0.00
4:53 am 04:53 Cloudy 54 12.2 53 11.7 97 97 ENE 5 7 30.28 1026 10 16 0.00 0.00
5:32 am 05:32 Cloudy 54 12.2 53 11.7 97 97 NNE 3 6 30.29 1026 10 16 0.00 0.00
5:53 am 05:53 Cloudy 54 12.2 52 11.1 93 93 NNE 5 7 30.29 1026 10 16 0.00 0.00
6:53 am 06:53 Cloudy 55 12.8 53 11.7 93 93 Calm 30.30 1026 10 16 0.00 0.00
7:33 am 07:33 Cloudy 55 12.8 53 11.7 93 93 Calm 30.32 1027 10 16 0.00 0.00
7:53 am 07:53 Cloudy 55 12.8 53 11.7 93 93 Calm 30.32 1027 10 16 0.00 0.00
8:42 am 08:42 Cloudy 55 12.8 53 11.7 93 93 N 3 6 30.35 1028 10 16 0.00 0.00
8:53 am 08:53 Cloudy 55 12.8 53 11.7 93 93 N 3 6 30.35 1028 10 16 0.00 0.00
9:53 am 09:53 Cloudy 56 13.3 53 11.7 90 90 NNW 5 7 30.36 1028 10 16 0.00 0.00
10:53 am 10:53 Cloudy 58 14.4 54 12.2 87 87 N 5 7 30.37 1028 10 16 0.00 0.00
11:53 am 11:53 Cloudy 60 15.6 53 11.7 78 78 N 6 9 30.37 1029 10 16 0.00 0.00
12:53 pm 12:53 Cloudy 63 17.2 53 11.7 70 70 N 3 6 30.36 1028 10 16 0.00 0.00
1:53 pm 13:53 Mostly Cloudy 66 18.9 53 11.7 63 63 NNE 5 7 30.34 1027 10 16 0.00 0.00
2:02 pm 14:02 Cloudy 66 18.9 53 11.7 63 63 N 7 11 30.33 1027 10 16 0.00 0.00
2:10 pm 14:10 Cloudy 66 18.9 53 11.7 63 63 NNE 7 11 30.33 1027 10 16 0.00 0.00
2:53 pm 14:53 Cloudy 66 18.9 53 11.7 63 63 N 7 11 30.31 1026 10 16 0.00 0.00
3:53 pm 15:53 Mostly Sunny 68 20 53 11.7 59 59 NNE 7 11 30.30 1026 10 16 0.00 0.00
4:53 pm 16:53 Sunny 67 19.4 53 11.7 61 61 N 6 9 30.29 1026 10 16 0.00 0.00
5:53 pm 17:53 Sunny 66 18.9 54 12.2 65 65 N 3 6 30.28 1025 10 16 0.00 0.00
6:53 pm 18:53 Clear 63 17.2 54 12.2 73 73 NNW 5 7 30.27 1025 10 16 0.00 0.00
7:53 pm 19:53 Clear 62 16.7 53 11.7 73 73 NNW 6 9 30.27 1025 10 16 0.00 0.00
8:53 pm 20:53 Clear 61 16.1 53 11.7 75 75 NNW 5 7 30.26 1025 10 16 0.00 0.00
9:53 pm 21:53 Clear 58 14.4 53 11.7 84 84 NNW 5 7 30.26 1025 10 16 0.00 0.00
10:53 pm 22:53 Clear 58 14.4 52 11.1 81 81 VRB 3 6 30.25 1024 10 16 0.00 0.00
11:53 pm 23:53 Clear 58 14.4 52 11.1 81 81 WNW 3 6 30.25 1024 10 16 0.00 0.00

Powered by AerisWeather